[[{"header":{"parameterUnit":"m.s-1","parameterCategory":1,"la1":30.2991,"la2":30.254,"lo1":-89.0895,"lo2":-89.0444,"dy":0.0017,"dx":0.0017,"nx":28,"ny":28,"refTime":"2023-10-13T21:00:00:Z","depth":0,"parameterNumber":2,"parameterNumberName":"U-component_of_WINDS"},"data":[0,0,0,0,0,0,0,0,0,0,0,0,0,0,0,0,0,0,0,0,0,0,0,0,0,0,0,0,0,0,0,0,0,0,0,0,0,0,0,0,0,0,0,0,0,0,0,0,0,0,0,0,0,0,0,0,0,0,0.4379,0.4379,0,0.4338,0.4338,0.4337,0.4334,0.4334,0.4335,0.4335,0.4293,0.4292,0.429,0,0,0,0,0,0,0,0,0,0,0,0,0,0.4457,0.4455,0.438,0.4379,0.4378,0.4338,0.4338,0.4337,0.4334,0.4334,0.4335,0.4335,0.4294,0.4292,0.429,0,0,0,0,0,0,0,0,0,0,0,0,0,0.442,0.4455,0.438,0.4372,0.4371,0.4338,0.4338,0.4337,0.4334,0.4334,0.4335,0.4335,0.4294,0.4292,0.429,0.4263,0,0,0.4283,0.4282,0,0,0,0,0,0,0,0,0.4422,0.4417,0.4374,0.4372,0.4371,0.4342,0.435,0.4312,0.4333,0.4348,0.4335,0.4336,0.4309,0.4306,0.4296,0.4261,0.4259,0.4283,0.4281,0.428,0.428,0,0,0,0,0,0,0,0.4425,0.4419,0.4363,0.4373,0.4371,0.4371,0.4366,0.4343,0.4325,0.4346,0.4346,0.4341,0.4308,0.4299,0.4295,0.4258,0.4283,0.4281,0.4279,0.4279,0.4199,0.4199,0,0,0,0,0,0,0.4429,0.4421,0.4365,0.4362,0.4399,0.4369,0.4364,0.4351,0.4325,0.4322,0.4341,0.4341,0.4302,0.4298,0.4294,0.426,0.4281,0.4278,0.4277,0.42,0.4199,0.4199,0,0,0,0,0,0,0.443,0.4423,0.4366,0.4391,0.4384,0.4367,0.4352,0.4349,0.4339,0.4321,0.4318,0.4334,0.4303,0.4297,0.4271,0.4259,0.4277,0.4275,0.4201,0.42,0.4199,0.4193,0,0,0,0,0,0,0.4432,0.4424,0.4413,0.4391,0.4383,0.4343,0.4351,0.4348,0.4335,0.4336,0.4314,0.4311,0.4303,0.4274,0.4268,0.4256,0.4273,0.4202,0.4201,0.4199,0.4194,0.4192,0.419,0,0,0,0,0,0.4435,0.4413,0.4412,0.4406,0.4369,0.4342,0.4338,0.4329,0.4335,0.4324,0.4312,0.4311,0.4262,0.4271,0.4265,0.4252,0.4203,0.4201,0.4199,0.4195,0.4193,0.419,0,0,0,0,0,0,0.4434,0.441,0.4409,0.4379,0.4363,0.4342,0.4327,0.4326,0.4307,0.4308,0.4299,0.4294,0.4268,0.4257,0.4269,0.4225,0.4233,0.423,0.4232,0.4229,0.4227,0.423,0.4272,0,0,0,0,0,0.443,0.441,0.4391,0.4367,0.4358,0.4345,0.4333,0.4327,0.431,0.4303,0.429,0.4273,0.4254,0.4241,0.4222,0.4194,0.4189,0.4182,0.418,0.4178,0.4175,0.4159,0.4156,0.4193,0.4193,0.4193,0,0,0.4422,0.4407,0.4395,0.4366,0.4353,0.4333,0.4339,0.4317,0.4303,0.43,0.4274,0.4264,0.4245,0.4217,0.4204,0.4208,0.4164,0.4176,0.4175,0.4173,0.4157,0.4154,0.4151,0.4192,0.4192,0.4192,0,0,0.4397,0.4383,0.4362,0.4348,0.4328,0.432,0.4315,0.4294,0.4287,0.4261,0.4259,0.4242,0.4209,0.4195,0.4184,0.4156,0.4155,0.4151,0.4139,0.4124,0.4121,0.4118,0.4108,0.4105,0.4148,0.4148,0.4148,0,0.4389,0.4359,0.4351,0.433,0.4317,0.4314,0.4293,0.428,0.4255,0.4247,0.4252,0.4211,0.4198,0.4167,0.416,0.4152,0.4146,0.4152,0.4122,0.4119,0.4117,0.4107,0.4103,0.4148,0.4148,0.4148,0.4148,0,0.4351,0.433,0.4315,0.4291,0.4277,0.4256,0.4245,0.4232,0.4229,0.4219,0.4194,0.4178,0.4157,0.4149,0.4145,0.4118,0.4121,0.4124,0.4132,0.4113,0.4103,0.41,0.4147,0.4147,0.4147,0.4147,0,0,0.4321,0.4294,0.4289,0.4278,0.4257,0.4241,0.422,0.4199,0.4188,0.4172,0.4154,0.4127,0.413,0.4117,0.4112,0.4099,0.4078,0.4104,0.4103,0.4099,0.4048,0.4045,0.404,0.4078,0.4077,0.4077,0.4049,0,0.4294,0.4256,0.4248,0.4216,0.4197,0.4195,0.4177,0.4162,0.4154,0.4137,0.4128,0.4109,0.4114,0.4107,0.4094,0.4083,0.4068,0.4086,0.4061,0.4061,0.4065,0.4035,0.4032,0.4007,0.4045,0.4045,0.4044,0,0.4255,0.4238,0.4203,0.4185,0.4177,0.4161,0.4141,0.4125,0.4109,0.4104,0.4091,0.4088,0.4067,0.4077,0.4048,0.406,0.4051,0.4044,0.4043,0.4039,0.405,0.403,0.3998,0.3994,0.4038,0.4039,0.4039,0,0.4237,0.4205,0.418,0.4171,0.415,0.4139,0.4129,0.4114,0.4102,0.4085,0.4078,0.4059,0.4048,0.4035,0.4027,0.4035,0.3999,0.4008,0.3994,0.3994,0.3985,0.3985,0.395,0.398,0.398,0.398,0.3981,0,0.4205,0.4184,0.4172,0.4156,0.4133,0.4126,0.4103,0.4094,0.408,0.4064,0.4062,0.4046,0.4037,0.4021,0.4015,0.3992,0.3988,0.3983,0.3982,0.3983,0.3983,0.3975,0.3976,0.3979,0.398,0.398,0.398,0,0.418,0.4171,0.4144,0.4126,0.4121,0.4105,0.409,0.4075,0.4068,0.4047,0.4042,0.403,0.401,0.4002,0.3978,0.3974,0.3948,0.3948,0.3953,0.3952,0.3938,0.3939,0.3895,0.3889,0.3925,0.3924,0.3924,0,0.416,0.4144,0.4125,0.4113,0.4104,0.4085,0.4073,0.4066,0.4054,0.4035,0.4023,0.4004,0.3988,0.3957,0.3947,0.3929,0.3928,0.3914,0.3925,0.3927,0.3927,0.3927,0.3926,0.3911,0.3911,0.3911,0.391,0,0.4125,0.4122,0.4105,0.4086,0.4072,0.4057,0.4042,0.4033,0.4024,0.4011,0.3991,0.3979,0.3955,0.3936,0.3917,0.3908,0.3908,0.3907,0.3903,0.3903,0.3906,0.3904,0.3946,0.3908,0.3908,0.3908,0.3908,0.3908,0.4101,0.4087,0.4072,0.4053,0.4041,0.4028,0.4013,0.4005,0.3988,0.3967,0.3965,0.3944,0.3929,0.3905,0.3895,0.3879,0.3882,0.3876,0.3875,0.3873,0.3872,0.391,0.3876,0.3876,0.3876,0.3876,0.3876,0,0.4066,0.4056,0.4039,0.4019,0.4004,0.4006,0.3991,0.3978,0.3959,0.3946,0.3931,0.3909,0.389,0.3879,0.3861,0.385,0.385,0.3846,0.3846,0.3844,0.387,0.3875,0.3846,0.3846,0.3846,0.3847,0.3847,0.3847,0.4046,0.4021,0.4017,0.3987,0.3978,0.3957,0.3948,0.3936,0.3925,0.3901,0.3885,0.3879,0.3866,0.3847,0.3831,0.3828,0.3822,0.3817,0.3815,0.3839,0.3842,0.3845,0.3849,0.3816,0.3816,0.379,0.3789,0.3789]},{"header":{"parameterUnit":"m.s-1","parameterCategory":1,"la1":30.2991,"la2":30.254,"lo1":-89.0895,"lo2":-89.0444,"dy":0.0017,"dx":0.0017,"nx":28,"ny":28,"refTime":"2023-10-13T21:00:00:Z","depth":0,"parameterNumber":3,"parameterNumberName":"V-component_of_WINDS"},"data":[0,0,0,0,0,0,0,0,0,0,0,0,0,0,0,0,0,0,0,0,0,0,0,0,0,0,0,0,0,0,0,0,0,0,0,0,0,0,0,0,0,0,0,0,0,0,0,0,0,0,0,0,0,0,0,0,0,0,-1.5809,-1.581,0,-1.5885,-1.5885,-1.5886,-1.5905,-1.5904,-1.5904,-1.5903,-1.5978,-1.598,-1.5983,0,0,0,0,0,0,0,0,0,0,0,0,0,-1.5679,-1.5682,-1.5809,-1.581,-1.5811,-1.5884,-1.5885,-1.5886,-1.5905,-1.5904,-1.5904,-1.5903,-1.5977,-1.598,-1.5983,0,0,0,0,0,0,0,0,0,0,0,0,0,-1.5743,-1.5682,-1.5809,-1.5829,-1.5832,-1.5884,-1.5885,-1.5887,-1.5905,-1.5904,-1.5904,-1.5903,-1.5976,-1.598,-1.5983,-1.602,0,0,-1.5994,-1.5996,0,0,0,0,0,0,0,0,-1.574,-1.5748,-1.5825,-1.5828,-1.5831,-1.5885,-1.5867,-1.5931,-1.5905,-1.5877,-1.5903,-1.5903,-1.5947,-1.5953,-1.5969,-1.6024,-1.6027,-1.5995,-1.5997,-1.5998,-1.5999,0,0,0,0,0,0,0,-1.5735,-1.5745,-1.5839,-1.5826,-1.583,-1.5834,-1.5842,-1.5879,-1.5915,-1.5879,-1.5881,-1.589,-1.5949,-1.5965,-1.5971,-1.6028,-1.5995,-1.5998,-1.6,-1.6001,-1.6119,-1.612,0,0,0,0,0,0,-1.5727,-1.5741,-1.5836,-1.5841,-1.5783,-1.5837,-1.5846,-1.5868,-1.5915,-1.5921,-1.589,-1.589,-1.5959,-1.5966,-1.5973,-1.6022,-1.5998,-1.6002,-1.6004,-1.6118,-1.6119,-1.612,0,0,0,0,0,0,-1.5725,-1.5736,-1.5833,-1.5792,-1.5804,-1.584,-1.5864,-1.587,-1.5887,-1.5923,-1.5929,-1.5901,-1.5959,-1.5968,-1.6009,-1.6024,-1.6003,-1.6007,-1.6117,-1.6118,-1.612,-1.6117,0,0,0,0,0,0,-1.5721,-1.5735,-1.5749,-1.5792,-1.5806,-1.5868,-1.5865,-1.5872,-1.5893,-1.5894,-1.5935,-1.5941,-1.5959,-1.6004,-1.6013,-1.6029,-1.601,-1.6116,-1.6118,-1.6119,-1.6116,-1.6118,-1.612,0,0,0,0,0,-1.5716,-1.5744,-1.575,-1.5761,-1.5826,-1.5869,-1.5878,-1.5899,-1.5894,-1.591,-1.5933,-1.5939,-1.6021,-1.6008,-1.6018,-1.6036,-1.6115,-1.6117,-1.6119,-1.6115,-1.6118,-1.612,0,0,0,0,0,0,-1.5701,-1.575,-1.5757,-1.58,-1.5831,-1.5872,-1.5892,-1.5901,-1.5932,-1.5932,-1.5956,-1.5965,-1.6005,-1.6024,-1.6008,-1.6075,-1.6068,-1.6072,-1.6061,-1.6064,-1.6066,-1.6061,-1.6013,0,0,0,0,0,-1.5704,-1.5735,-1.5776,-1.581,-1.5825,-1.5856,-1.5876,-1.589,-1.5922,-1.5934,-1.5961,-1.5991,-1.6024,-1.6045,-1.6077,-1.6119,-1.6128,-1.6136,-1.6138,-1.6139,-1.6143,-1.6169,-1.6173,-1.6127,-1.6127,-1.6127,0,0,-1.5707,-1.5738,-1.5757,-1.5808,-1.5833,-1.5866,-1.5867,-1.59,-1.5925,-1.5939,-1.5981,-1.6001,-1.6036,-1.6078,-1.6098,-1.6096,-1.6158,-1.6142,-1.6143,-1.6146,-1.6171,-1.6176,-1.618,-1.6129,-1.6128,-1.6128,0,0,-1.5732,-1.5758,-1.579,-1.5816,-1.5855,-1.5876,-1.5883,-1.5924,-1.5939,-1.5981,-1.5993,-1.6022,-1.6077,-1.6102,-1.6122,-1.6158,-1.6166,-1.6168,-1.6179,-1.6204,-1.6207,-1.6211,-1.6225,-1.623,-1.6171,-1.6171,-1.6171,0,-1.5732,-1.5782,-1.5805,-1.584,-1.5863,-1.5879,-1.5912,-1.5935,-1.5982,-1.5997,-1.5994,-1.6065,-1.6089,-1.6139,-1.6148,-1.6163,-1.6173,-1.6164,-1.6205,-1.6209,-1.6212,-1.6226,-1.6231,-1.6171,-1.6171,-1.6171,-1.6171,0,-1.5781,-1.5816,-1.5837,-1.5884,-1.5909,-1.5942,-1.5971,-1.5993,-1.6005,-1.6026,-1.6069,-1.6099,-1.6139,-1.6151,-1.6162,-1.6202,-1.62,-1.62,-1.6194,-1.6216,-1.623,-1.6236,-1.6171,-1.6171,-1.6171,-1.6171,0,0,-1.5799,-1.5859,-1.5867,-1.5889,-1.5934,-1.5961,-1.5995,-1.6035,-1.6055,-1.6086,-1.6116,-1.6163,-1.6165,-1.6187,-1.6202,-1.6223,-1.6252,-1.6221,-1.6222,-1.6227,-1.63,-1.6301,-1.6307,-1.6257,-1.6258,-1.6259,-1.6298,0,-1.583,-1.5894,-1.5916,-1.5968,-1.6001,-1.6018,-1.6048,-1.6078,-1.6099,-1.6129,-1.6151,-1.6185,-1.6183,-1.6198,-1.622,-1.6244,-1.6267,-1.6241,-1.6285,-1.6287,-1.6278,-1.6313,-1.6314,-1.6349,-1.6303,-1.6304,-1.6305,0,-1.5875,-1.591,-1.5966,-1.6009,-1.6023,-1.605,-1.6089,-1.6118,-1.6153,-1.6167,-1.6193,-1.6206,-1.6243,-1.6234,-1.6285,-1.6267,-1.6286,-1.6301,-1.6303,-1.6309,-1.6298,-1.6322,-1.6361,-1.6367,-1.6313,-1.6312,-1.6312,0,-1.5885,-1.5945,-1.5987,-1.6005,-1.6055,-1.6074,-1.6096,-1.613,-1.6153,-1.6187,-1.6203,-1.6239,-1.626,-1.6288,-1.6311,-1.6302,-1.6361,-1.6353,-1.6374,-1.6373,-1.6387,-1.6386,-1.6431,-1.6396,-1.6396,-1.6396,-1.6396,0,-1.5919,-1.5953,-1.5993,-1.6018,-1.6057,-1.6082,-1.612,-1.6142,-1.6173,-1.6204,-1.6219,-1.6247,-1.6275,-1.6306,-1.6324,-1.6365,-1.6373,-1.6386,-1.639,-1.6386,-1.6384,-1.64,-1.6398,-1.6397,-1.6397,-1.6397,-1.6396,0,-1.5936,-1.5964,-1.6011,-1.6056,-1.6067,-1.6094,-1.6132,-1.6158,-1.6179,-1.6218,-1.6228,-1.6261,-1.63,-1.6325,-1.6373,-1.6386,-1.6431,-1.6434,-1.642,-1.6422,-1.6442,-1.6441,-1.65,-1.651,-1.6467,-1.6467,-1.6467,0,-1.5957,-1.5984,-1.6032,-1.6054,-1.6076,-1.6111,-1.6136,-1.6162,-1.6186,-1.6229,-1.625,-1.629,-1.6323,-1.6383,-1.6412,-1.6449,-1.6454,-1.6473,-1.646,-1.6455,-1.6457,-1.6456,-1.6459,-1.6475,-1.6475,-1.6476,-1.6476,0,-1.5991,-1.6004,-1.6039,-1.608,-1.6109,-1.6141,-1.6174,-1.6191,-1.6223,-1.6249,-1.629,-1.6316,-1.6366,-1.6406,-1.6446,-1.6468,-1.6478,-1.6479,-1.6487,-1.6483,-1.6474,-1.6481,-1.6427,-1.6478,-1.6478,-1.6478,-1.6478,-1.6478,-1.6012,-1.6038,-1.6076,-1.6115,-1.6143,-1.6174,-1.6201,-1.6227,-1.6261,-1.6305,-1.6318,-1.636,-1.6396,-1.6452,-1.6474,-1.6507,-1.6505,-1.6515,-1.6518,-1.6521,-1.6522,-1.6468,-1.6514,-1.6514,-1.6514,-1.6514,-1.6514,0,-1.6049,-1.6075,-1.611,-1.6157,-1.6188,-1.6195,-1.6232,-1.6257,-1.6295,-1.6328,-1.6361,-1.6408,-1.6447,-1.6479,-1.6519,-1.6539,-1.6545,-1.6549,-1.6549,-1.6554,-1.652,-1.6511,-1.6544,-1.6544,-1.6544,-1.6544,-1.6544,-1.6544,-1.6072,-1.6116,-1.6134,-1.6192,-1.6218,-1.6261,-1.6282,-1.631,-1.6337,-1.6389,-1.6422,-1.6443,-1.6476,-1.6519,-1.6555,-1.6563,-1.6578,-1.6582,-1.6591,-1.6559,-1.6556,-1.6553,-1.6545,-1.6584,-1.6584,-1.6623,-1.6623,-1.6623]}]]